Preview of NWS' New Version of Forecast
This preview is not operational and should not be used for support decisions.

Regional Weather Roundup (RWR)

Issued by National Weather Service (NWS)

                            
000
ASUS43 KDTX 202201
RWRMI 
MICHIGAN HOURLY REGIONAL WEATHER ROUNDUP
NATIONAL WEATHER SERVICE DETROIT/PONTIAC MI
600 PM EDT WED MAR 20 2019

NOTE: "FAIR" INDICATES FEW OR NO CLOUDS BELOW 12,000 FEET WITH NO
SIGNIFICANT WEATHER AND/OR OBSTRUCTION TO VISIBILITY.

MIZ047>049-052>055-059>063-066>070-074>076-081>083-202300-
SOUTHEAST LOWER MICHIGAN
  
CITY           SKY/WX    TMP DP  RH WIND       PRES   REMARKS
ADRIAN         CLOUDY    42  34  73 SW17      29.99F                  
ALMA           LGT SNOW  36  34  93 SE5       29.96F WCI  32          
ANN ARBOR      LGT RAIN  40  36  86 SE6       29.99F FOG              
BAD AXE        LGT RAIN  40  37  89 S13G18    30.00S WCI  32          
CARO           LGT RAIN  37  35  94 SE6       29.99F WCI  32          
DETROIT CITY   LGT RAIN  41  34  76 S10       30.02F                  
DETROIT        CLOUDY    42  34  73 SE5       30.01F                  
FLINT          LGT RAIN  37  34  89 S8        29.99F FOG     WCI  31  
GROSSE ILE     LGT RAIN  40  35  82 SE5       30.01F                  
HILLSDALE      CLOUDY    40  33  76 S9        29.94F WCI  34          
HOWELL         LGT RAIN  38  36  93 SE10      29.97F WCI  30          

CITY           SKY/WX    TMP DP  RH WIND       PRES   REMARKS
JACKSON        LGT RAIN  39  37  92 SE7       29.95F FOG     WCI  34  
LAMBERTVILLE   DRIZZLE   46  34  62 SW12G21   30.00S                  
LANSING        LGT RAIN  36  35  96 S7        29.96F FOG     WCI  30  
LAPEER         RAIN      38  37  94 SE3       30.00F                  
MASON          LGT RAIN  37  36  94 SE6       29.96F WCI  33          
MONROE         LGT RAIN  44  37  77 SE3       30.00F                  
MT. CLEMENS    LGT RAIN  39  39 100 SE9       30.01F WCI  33          
PONTIAC        LGT RAIN  38  37  97 SE8       29.98F FOG     WCI  32  
PORT HOPE        N/A     41  36  82 VRB7      29.99F                  
PORT HURON     LGT RAIN  39  36  87 S6        30.04F WCI  35          
TRI CITIES     LGT RAIN  37  35  92 S13       29.98F FOG     WCI  29  
MIDLAND        DRIZZLE   38  36  91 S6        29.97F WCI  34          
TROY           LGT RAIN  41  35  80 S8        30.02F                  
SAGINAW HB     LGT RAIN  39  36  87 S12       29.99S WCI  32          
$$
MIZ043>046-050>051-056>058-064>065-071>073-077>080-202300-
SOUTHWEST LOWER MICHIGAN
  
CITY           SKY/WX    TMP DP  RH WIND       PRES   REMARKS
BATTLE CREEK   LGT RAIN  38  35  89 S10       29.94F FOG     WCI  31  
BENTON HARBOR  CLOUDY    40  37  89 S6        29.92F FOG              
BIG RAPIDS     LGT SNOW  33  32  96 CALM      29.93S VSB 1            
COLDWATER      LGT RAIN  41  38  88 S7        29.94F                  
FREMONT        LGT SNOW  34  34 100 SE6       29.93S WCI  29          
HOLLAND        LGT RAIN  34  32  92 SE6       29.93S FOG     WCI  29  
GRAND RAPIDS   LGT SNOW  33  33 100 SE5       29.93F VSB 1   WCI  29  
IONIA          LGT SNOW  33  32  96 SE6       29.93F VSB 3/4 WCI  27  
KALAMAZOO      LGT RAIN  39  36  89 S8        29.94F FOG     WCI  33  
LUDINGTON      CLOUDY    38  36  92 SE7       29.90S FOG     WCI  32  
MARSHALL       LGT RAIN  38  38 100 S5        29.94F WCI  35          
MOUNT PLEASANT LGT SNOW  35  33  92 SE6       29.96S WCI  30          
MUSKEGON       LGT SNOW  34  31  88 SE7       29.93F FOG     WCI  28  
SOUTH HAVEN    LGT RAIN  39  37  91 CALM      29.92F                  
$$
MIZ016>042-202300-
NORTHERN LOWER MICHIGAN
  
CITY           SKY/WX    TMP DP  RH WIND       PRES   REMARKS
ALPENA         CLOUDY    43  31  62 S7        29.94F                  
BEAVER ISLAND  RAIN      35  34  94 SW8       29.91S WCI  29          
BELLAIRE       MIX PCPN  42  35  77 S3        29.92R                  
CADILLAC       LGT RAIN  38  36  94 S8        29.89F WCI  32          
CHARLEVOIX     LGT RAIN  39  37  92 E3        29.94S                  
FRANKFORT      DRIZZLE   43  36  75 S6        29.90S                  
GAYLORD        CLOUDY    38  32  79 S6        29.90S WCI  33          
GRAYLING       LGT RAIN  38  35  89 S6        29.91S WCI  34          
HARBOR SPRINGS RAIN      39  38  96 CALM      29.92S                  
HOUGHTON LAKE  LGT RAIN  38  32  79 S13       29.93S WCI  30          
MANISTEE       LGT RAIN  38  36  92 S5        29.90F WCI  34          
OSCODA         MIX PCPN  38  34  87 S10G20    29.98S WCI  31          
PELLSTON       LGT RAIN  40  36  86 SW3       29.93S                  
ROGERS CITY    CLOUDY    39  33  80 NE5       29.95R                  
TRAVERSE CITY  LGT RAIN  43  35  73 S7G20     29.89S                  
$$
MIZ007>008-015-202300-
EASTERN UPPER MICHIGAN
  
CITY           SKY/WX    TMP DP  RH WIND       PRES   REMARKS
KINROSS        LGT RAIN  38  34  85 SW6       29.93S WCI  33          
MACKINAC ISLAN LGT RAIN  38  34  86 W3        29.92S                  
NEWBERRY       CLOUDY    34  32  92 S7        29.90R FOG     WCI  28  
S. S. MARIE    CLOUDY    39  34  82 S6        29.92R WCI  35          
MUNISING         N/A     35  31  85 N5        29.88R WCI  31          
$$
MIZ004>006-011>014-085-202300-
CENTRAL UPPER MICHIGAN
  
CITY           SKY/WX    TMP DP  RH WIND       PRES   REMARKS
MANISTIQUE     MIX PCPN  34  29  82 S5        29.89S WCI  30          
ESCANABA       PTSUNNY   37  33  85 SE7       29.88R WCI  32          
MENOMINEE      LGT RAIN  43  33  68 CALM      29.87R                  
SAWYER-GWINN   LGT RAIN  34  32  93 NE10      29.85R WCI  26          
$$
MIZ001>003-009>011-084-202300-
WESTERN UPPER MICHIGAN
  
CITY           SKY/WX    TMP DP  RH WIND       PRES   REMARKS
IRON MOUNTAIN  LGT RAIN  37  34  89 N3        29.84R                  
HOUGHTON       CLOUDY    34  31  88 N6        29.88R FOG     WCI  29  
COPPER HARBOR    N/A     33  32  96 E3        29.91R                  
IRONWOOD       LGT RAIN  33  31  92 N7        29.92R FOG     WCI  27  
$$

ABBREVIATIONS USED IN REMARKS
   TC - TEMPERATURE IN CELSIUS
  WCI - WIND CHILL INDEX
   HX - HEAT INDEX
  VSB - VISIBILITY